Weather History for Indianapolis, IN

Change the Weather History Date:

Sunday, September 9, 2012

  Actual Average (KEYE) Record (KEYE)
Temperature  
Mean Temperature 62 °F 70 °F  
Max Temperature 73 °F 80 °F 91 °F (2002)
Min Temperature 52 °F 60 °F 49 °F (2010)
Degree Days  
Heating Degree Days 2 1  
Month to date heating degree days 1  
Since 1 July heating degree days 4  
Cooling Degree Days 0 6  
Month to date cooling degree days 60  
Year to date cooling degree days 980  
Growing Degree Days 12 (Base 50)    
Moisture  
Dew Point 51 °F    
Average Humidity 69    
Maximum Humidity 87    
Minimum Humidity 45    
Precipitation  
Precipitation 0.00 in 0.07 in 1.66 in (1997)
Month to date precipitation 0.66  
Year to date precipitation 29.31  
Sea Level Pressure  
Sea Level Pressure 29.99 in    
Wind  
Wind Speed 4 mph (NNW)    
Max Wind Speed 13 mph    
Max Gust Speed 17 mph    
Visibility 10 miles    
Events      
T = Trace of Precipitation, MM = Missing Value Source: NWS Daily Summary

Daily Weather History Graph

Daily Weather History Graph

Search for Another Location

Airport:

Trip Planner

Search our weather history database for the weather conditions in past years. The results will help you decide how hot, cold, wet, or windy it might be!

Date:

Astronomy

Sep. 09, 2012 Rise Set
Actual Time 7:20 AM EDT 8:02 PM EDT
Civil Twilight 6:53 AM EDT 8:30 PM EDT
Nautical Twilight 6:20 AM EDT 9:02 PM EDT
Astronomical Twilight 5:47 AM EDT 9:35 PM EDT
Moon 12:49 AM EDT (9/9) 3:47 PM EDT (9/9)
Length of Visible Light 13h 36m
Length of Day
12h 42m
Last Quarter, 39% of the Moon is Illuminated
Sep 9
Last Quarter
Sep 15
New
Sep 22
First Quarter
Sep 29
Full
Oct 8
Last Quarter

Hourly Weather History & Observations

Time (EDT) Temp. Dew Point Humidity Pressure Visibility Wind Dir Wind Speed Gust Speed Precip Events Conditions
12:55 AM 54.0 °F 49.1 °F 84% 29.91 in 10.0 mi WSW 3.5 mph - N/A   Clear
1:15 AM 54.1 °F 49.1 °F 83% 29.92 in 10.0 mi WSW 3.5 mph - N/A   Clear
1:35 AM 53.1 °F 48.4 °F 84% 29.92 in 10.0 mi Calm Calm - N/A   Clear
1:55 AM 52.3 °F 48.2 °F 86% 29.92 in 10.0 mi Calm Calm - N/A   Clear
2:15 AM 52.9 °F 49.1 °F 87% 29.91 in 10.0 mi WSW 3.5 mph - N/A   Scattered Clouds
2:35 AM 54.7 °F 50.7 °F 86% 29.91 in 10.0 mi Calm Calm - N/A   Mostly Cloudy
2:55 AM 55.9 °F 51.4 °F 85% 29.91 in 10.0 mi Calm Calm - N/A   Overcast
3:15 AM 56.5 °F 50.7 °F 81% 29.91 in 10.0 mi WSW 4.6 mph - N/A   Overcast
3:35 AM 56.8 °F 51.1 °F 81% 29.91 in 10.0 mi WSW 3.5 mph - N/A   Overcast
3:55 AM 56.8 °F 50.9 °F 80% 29.90 in 10.0 mi SSW 3.5 mph - N/A   Mostly Cloudy
4:15 AM 56.7 °F 50.5 °F 80% 29.91 in 10.0 mi WSW 3.5 mph - N/A   Clear
4:35 AM 55.8 °F 50.0 °F 81% 29.90 in 10.0 mi SW 3.5 mph - N/A   Clear
4:55 AM 55.2 °F 50.2 °F 83% 29.90 in 10.0 mi Calm Calm - N/A   Scattered Clouds
5:15 AM 55.9 °F 51.3 °F 84% 29.91 in 10.0 mi Calm Calm - N/A   Overcast
5:35 AM 56.3 °F 51.4 °F 84% 29.90 in 10.0 mi SSE 3.5 mph - N/A   Overcast
5:55 AM 56.3 °F 51.6 °F 84% 29.89 in 10.0 mi SSE 3.5 mph - N/A   Overcast
6:15 AM 55.6 °F 50.4 °F 83% 29.89 in 10.0 mi South 3.5 mph - N/A   Mostly Cloudy
6:35 AM 55.0 °F 50.0 °F 83% 29.89 in 10.0 mi Calm Calm - N/A   Mostly Cloudy
6:55 AM 54.9 °F 50.0 °F 84% 29.90 in 10.0 mi SSW 3.5 mph - N/A   Mostly Cloudy
7:15 AM 55.6 °F 50.0 °F 81% 29.91 in 10.0 mi Calm Calm - N/A   Mostly Cloudy
7:35 AM 54.5 °F 49.5 °F 83% 29.91 in 10.0 mi SW 3.5 mph - N/A   Scattered Clouds
7:55 AM 54.3 °F 49.1 °F 83% 29.93 in 10.0 mi Calm Calm - N/A   Clear
8:35 AM 57.4 °F 51.4 °F 81% 29.94 in 10.0 mi Calm Calm - N/A   Clear
8:55 AM 58.3 °F 51.1 °F 77% 29.94 in 10.0 mi Calm Calm - N/A   Clear
9:15 AM 59.0 °F 50.9 °F 74% 29.95 in 10.0 mi NNW 4.6 mph - N/A   Clear
9:35 AM 60.1 °F 51.1 °F 72% 29.95 in 10.0 mi Calm Calm - N/A   Clear
9:55 AM 60.6 °F 50.9 °F 70% 29.95 in 10.0 mi Calm Calm - N/A   Clear
10:15 AM 61.7 °F 51.4 °F 69% 29.96 in 10.0 mi NNW 3.5 mph - N/A   Clear
10:35 AM 62.4 °F 51.1 °F 66% 29.98 in 10.0 mi North 3.5 mph - N/A   Clear
10:55 AM 64.2 °F 51.8 °F 64% 29.99 in 10.0 mi North 6.9 mph - N/A   Clear
11:15 AM 65.1 °F 51.4 °F 61% 29.99 in 10.0 mi North 6.9 mph - N/A   Scattered Clouds
11:35 AM 66.2 °F 51.4 °F 59% 30.00 in 10.0 mi ENE 8.1 mph - N/A   Mostly Cloudy
11:55 AM 66.7 °F 50.9 °F 57% 30.00 in 10.0 mi NE 6.9 mph - N/A   Mostly Cloudy
12:15 PM 68.2 °F 51.8 °F 56% 30.00 in 10.0 mi North 6.9 mph - N/A   Mostly Cloudy
12:35 PM 66.9 °F 50.0 °F 54% 30.00 in 10.0 mi NNE 8.1 mph - N/A   Scattered Clouds
12:55 PM 70.0 °F 50.0 °F 49% 30.00 in 10.0 mi NE 10.4 mph 16.1 mph N/A   Scattered Clouds
1:15 PM 70.9 °F 50.2 °F 48% 30.01 in 10.0 mi NE 9.2 mph - N/A   Scattered Clouds
1:35 PM 70.3 °F 49.6 °F 48% 30.01 in 10.0 mi North 6.9 mph - N/A   Scattered Clouds
1:55 PM 71.1 °F 50.0 °F 47% 30.02 in 10.0 mi NNE 5.8 mph - N/A   Scattered Clouds
2:15 PM 71.6 °F 50.4 °F 47% 30.01 in 10.0 mi North 10.4 mph - N/A   Scattered Clouds
2:35 PM 71.1 °F 50.4 °F 48% 30.02 in 10.0 mi North 8.1 mph - N/A   Scattered Clouds
2:55 PM 70.5 °F 50.5 °F 49% 30.02 in 10.0 mi NNW 12.7 mph - N/A   Scattered Clouds
3:15 PM 72.9 °F 51.3 °F 47% 30.02 in 10.0 mi North 9.2 mph - N/A   Scattered Clouds
3:35 PM 71.8 °F 51.8 °F 49% 30.02 in 10.0 mi North 6.9 mph - N/A   Mostly Cloudy
3:55 PM 73.4 °F 52.0 °F 47% 30.02 in 10.0 mi NNW 8.1 mph - N/A   Scattered Clouds
4:15 PM 73.8 °F 51.1 °F 45% 30.02 in 10.0 mi NW 10.4 mph - N/A   Mostly Cloudy
4:35 PM 72.0 °F 49.6 °F 45% 30.02 in 10.0 mi North 9.2 mph - N/A   Overcast
5:15 PM 70.9 °F 52.3 °F 52% 30.03 in 10.0 mi NW 10.4 mph 17.3 mph N/A   Overcast
5:35 PM 71.6 °F 52.9 °F 52% 30.04 in 10.0 mi NW 9.2 mph - N/A   Overcast
5:55 PM 69.6 °F 54.5 °F 59% 30.05 in 10.0 mi North 4.6 mph - N/A   Overcast
6:15 PM 71.1 °F 54.3 °F 55% 30.05 in 10.0 mi NNW 10.4 mph - N/A   Mostly Cloudy
6:35 PM 70.2 °F 52.0 °F 52% 30.05 in 10.0 mi NNW 11.5 mph - N/A   Mostly Cloudy
6:55 PM 68.4 °F 52.7 °F 57% 30.06 in 10.0 mi NNW 5.8 mph - N/A   Mostly Cloudy
7:15 PM 68.2 °F 52.3 °F 57% 30.06 in 10.0 mi North 9.2 mph - N/A   Scattered Clouds
7:35 PM 67.3 °F 52.7 °F 59% 30.07 in 10.0 mi North 6.9 mph - N/A   Mostly Cloudy
7:55 PM 65.1 °F 53.8 °F 67% 30.07 in 10.0 mi North 4.6 mph - N/A   Scattered Clouds
8:15 PM 63.3 °F 54.0 °F 71% 30.07 in 10.0 mi NNW 5.8 mph - N/A   Clear
8:35 PM 61.9 °F 54.5 °F 77% 30.07 in 10.0 mi NNW 4.6 mph - N/A   Clear
8:55 PM 61.0 °F 54.1 °F 78% 30.08 in 10.0 mi NNW 5.8 mph - N/A   Clear
9:15 PM 61.0 °F 54.0 °F 78% 30.09 in 10.0 mi NW 4.6 mph - N/A   Clear
9:35 PM 60.4 °F 53.6 °F 78% 30.10 in 10.0 mi NW 4.6 mph - N/A   Clear
9:55 PM 60.8 °F 52.9 °F 75% 30.11 in 10.0 mi NNW 6.9 mph - N/A   Clear
10:15 PM 59.9 °F 52.7 °F 77% 30.11 in 10.0 mi NNW 6.9 mph - N/A   Clear
10:35 PM 59.5 °F 50.9 °F 73% 30.11 in 10.0 mi North 8.1 mph - N/A   Clear
10:55 PM 59.0 °F 50.0 °F 72% 30.12 in 10.0 mi NNW 5.8 mph - N/A   Clear
11:15 PM 57.7 °F 50.0 °F 75% 30.13 in 10.0 mi NNW 5.8 mph - N/A   Clear
11:35 PM 57.2 °F 50.0 °F 77% 30.14 in 10.0 mi North 5.8 mph - N/A   Clear
11:55 PM 56.7 °F 49.5 °F 77% 30.14 in 10.0 mi North 5.8 mph - N/A   Clear